This demonstration page uses our WeatherBlox Daily Observations layout. Learn more.

Left ArrowRight Arrow

Hourly Observations for May 9, 2015

Temp ( °F °C ) Dew Point ( °F °C ) Humidity (%) Winds ( mph kmh ) Pressure ( in mb ) Visibility ( mi km ) Precip ( " mm )
12:53 am 00:53 Partly Cloudy 74 23.3 65 18.3 74 74 SE 15 24 29.60 1002 10 16 0.00 0.00
1:16 am 01:16 Mostly Cloudy 75 24 64 18 69 69 ESE 14 22 29.59 1002 10 16 0.00 0.00
1:37 am 01:37 Cloudy with Nearby Thunderstorms 75 23.9 65 18.3 71 71 ESE 12 19 29.59 1002 9 14 0.00 0.00
1:53 am 01:53 Cloudy with Thunderstorms 74 23.3 66 18.9 76 76 SSE 9 15 29.61 1003 8 13 0.00 0.03
2:18 am 02:18 Mostly Cloudy with Nearby Thunderstorms 73 23 66 19 78 78 SE 13 20 29.59 1002 7 11 0.00 0.00
2:34 am 02:34 Mostly Cloudy 73 23 66 19 78 78 SE 12 19 29.56 1001 7 11 0.00 0.00
2:44 am 02:44 Partly Cloudy 73 23 66 19 78 78 SE 13 20 29.56 1001 7 11 0.00 0.00
2:53 am 02:53 Mostly Clear 73 22.8 66 18.9 79 79 SE 15 24 29.56 1001 7 11 0.01 0.25
3:53 am 03:53 Hazy 71 21.7 66 18.9 84 84 Calm 29.57 1001 6 10 0.00 0.00
4:53 am 04:53 Clear with Mist and Fog 69 20.6 65 18.3 87 87 NW 8 13 29.59 1002 4 6 0.00 0.00
5:53 am 05:53 Clear with Mist and Fog 66 18.9 63 17.2 90 90 WNW 6 9 29.62 1003 3 5 0.00 0.00
6:53 am 06:53 Clear with Mist and Fog 64 17.8 61 16.1 90 90 W 7 11 29.66 1004 4 6 0.00 0.00
7:21 am 07:21 Sunny with Mist and Fog 63 17.2 60 15.6 90 90 WSW 7 11 29.74 1007 2 3 0.00 0.00
7:46 am 07:46 Hazy 66 18.9 61 16.1 84 84 W 7 11 29.74 1007 5 8 0.00 0.00
7:53 am 07:53 Sunny 66 18.9 60 15.6 81 81 W 7 11 29.68 1005 7 11 0.00 0.00
8:53 am 08:53 Sunny 69 20.6 46 7.8 44 44 W 9 15 29.72 1006 10 16 0.00 0.00
9:53 am 09:53 Sunny 77 25 36 2.2 23 23 WNW 10 17 29.71 1006 10 16 0.00 0.00
10:53 am 10:53 Sunny 79 26.1 30 -1.1 17 17 WNW 8 13 29.71 1006 10 16 0.00 0.00
11:53 am 11:53 Sunny 81 27.2 30 -1.1 16 16 W 12 19 29.72 1006 10 16 0.00 0.00
12:53 pm 12:53 Sunny 84 28.9 30 -1.1 14 14 W 13 20 29.70 1006 10 16 0.00 0.00
1:53 pm 13:53 Sunny 85 29.4 28 -2.2 13 13 WSW 18 30 29.67 1005 10 16 0.00 0.00
2:53 pm 14:53 Sunny 87 30.6 26 -3.3 11 11 SW 16 26 29.65 1004 10 16 0.00 0.00
3:53 pm 15:53 Sunny 90 32.2 17 -8.3 7 7 WSW 22 35 29.62 1003 10 16 0.00 0.00
4:53 pm 16:53 Sunny 90 32.2 18 -7.8 7 7 WSW 22 35 29.61 1003 10 16 0.00 0.00
5:53 pm 17:53 Sunny 87 30.6 17 -8.3 7 7 WNW 18 30 29.62 1003 10 16 0.00 0.00
6:53 pm 18:53 Sunny 85 29.4 16 -8.9 7 7 WNW 17 28 29.63 1003 10 16 0.00 0.00
7:53 pm 19:53 Sunny 82 27.8 14 -10 8 8 NNW 17 28 29.63 1004 10 16 0.00 0.00
8:53 pm 20:53 Clear 73 22.8 19 -7.2 13 13 N 9 15 29.65 1004 10 16 0.00 0.00
9:37 pm 21:37 Mostly Clear 67 19.4 24 -4.4 20 20 NNE 7 11 29.68 1005 10 16 0.00 0.00
9:53 pm 21:53 Clear 66 18.9 26 -3.3 22 22 N 9 15 29.67 1005 10 16 0.00 0.00
10:53 pm 22:53 Clear 62 16.7 30 -1.1 30 30 N 9 15 29.69 1005 10 16 0.00 0.00
11:53 pm 23:53 Clear 61 16.1 30 -1.1 31 31 NNE 6 9 29.73 1007 10 16 0.00 0.00

Powered by AerisWeather